sat.trackr.live / text

‹ back to catalog

STARLINK-35043

NORAD 65436 · 2025-194C

PAYLOAD ACTIVE UNKNOWN

§ Identity

Operator
Country
US
Launch date
2025-09-03
Launch site
AFWTR
Launch vehicle
Mass (kg)
RCS (m²)

Purposes: comms

External: N2YO · Heavens-Above · Gunter

§ Orbital elements

Epoch: 2026-05-25T02:29:52.412640Z

Period
95.69 min
Inclination
97.5159°
Eccentricity
0.0002390
Mean motion
15.04838965 rev/d
Perigee alt
550.3 km
Apogee alt
553.7 km
Semi-major
6,930.1 km
B*
1.5200e-4
RAAN
359.9476°
Arg perigee
86.1150°
Mean anomaly
274.0350°
Rev number
4,117

§ Raw data

STARLINK-350431 65436U 25194C   26145.10407885  .00002088  00000+0  15200-3 0  99942 65436  97.5159 359.9476 0002390  86.1150 274.0350 15.04838965 41173

JSON: /api/v1/satellites/65436 · /tle

For live sub-satellite position, see the globe view (requires WebGL).

§ Visibility from observer

Set your observer location to see the next 7 days of passes ≥ 10°. The values pass through the URL so the page stays shareable.

No JS? Fill the form by hand. The geolocation button needs JavaScript.